Madison, MN

4:07 PM CST on December 04, 2016 (GMT -0600)
Madison-Lac Qui Parle County

Weather History for KDXX - March, 2013

Change the Weather History Date:

Friday, March 29, 2013

  Actual Average (KAQP) Record (KAQP)
Temperature  
Mean Temperature 33 °F -  
Max Temperature 42 °F 42 °F 68 °F (2005)
Min Temperature 24 °F 24 °F 12 °F (2011)
Degree Days  
Heating Degree Days 32    
Moisture  
Dew Point 32 °F    
Average Humidity 91    
Maximum Humidity 100    
Minimum Humidity 81    
Precipitation  
Precipitation 0.00 in - - ()
Sea Level Pressure  
Sea Level Pressure 30.11 in    
Wind  
Wind Speed 3 mph (ESE)    
Max Wind Speed 9 mph    
Max Gust Speed -    
Visibility 3 miles    
Events Fog , Thunderstorm    
Averages and records for this station are not official NWS values.
T = Trace of Precipitation, MM = Missing Value Source: NWS Daily Summary

Daily Weather History Graph

Daily Weather History Graph

Search for Another Location

Airport or City:

Trip Planner

Search our weather history database for the weather conditions in past years. The results will help you decide how hot, cold, wet, or windy it might be!

Date:

Astronomy

Mar. 29, 2013 Rise Set
Actual Time 7:10 AM CDT 7:49 PM CDT
Civil Twilight 6:40 AM CDT 8:18 PM CDT
Nautical Twilight 6:05 AM CDT 8:53 PM CDT
Astronomical Twilight 5:29 AM CDT 9:30 PM CDT
Moon 10:59 PM CDT (3/29) 8:12 AM CDT (3/29)
Length of Visible Light 13h 37m
Length of Day
12h 38m
Waning Gibbous, 93% of the Moon is Illuminated
Mar 29
Waning Gibbous
Apr 2
Last Quarter
Apr 10
New
Apr 18
First Quarter
Apr 25
Full

Hourly Weather History & Observations

Time (CDT) Temp. Windchill Dew Point Humidity Pressure Visibility Wind Dir Wind Speed Gust Speed Precip Events Conditions
12:14 AM 28.4 °F - 26.6 °F 93% 30.20 in 2.5 mi Calm Calm - N/A   Scattered Clouds
12:33 AM 28.4 °F 24.6 °F 26.6 °F 93% 30.21 in 3.0 mi SW 3.5 mph - N/A   Scattered Clouds
12:54 AM 28.4 °F - 26.6 °F 93% 30.21 in 3.0 mi Calm Calm - N/A   Clear
1:13 AM 28.4 °F - 26.6 °F 93% 30.21 in 2.5 mi Calm Calm - N/A   Scattered Clouds
1:33 AM 28.4 °F - 28.4 °F 100% 30.21 in 2.0 mi Calm Calm - N/A   Mostly Cloudy
1:54 AM 28.4 °F - 26.6 °F 93% 30.21 in 2.0 mi Calm Calm - N/A   Overcast
2:13 AM 28.4 °F - 26.6 °F 93% 30.21 in 2.5 mi Calm Calm - N/A   Scattered Clouds
2:34 AM 28.4 °F 23.3 °F 26.6 °F 93% 30.21 in 2.5 mi SSE 4.6 mph - N/A   Scattered Clouds
2:54 AM 28.4 °F - 26.6 °F 93% 30.21 in 3.0 mi Calm Calm - N/A   Mostly Cloudy
3:13 AM 28.4 °F 23.3 °F 26.6 °F 93% 30.20 in 3.0 mi SSE 4.6 mph - N/A   Scattered Clouds
3:34 AM 28.4 °F 24.6 °F 26.6 °F 93% 30.20 in 2.5 mi SSE 3.5 mph - N/A   Clear
3:54 AM 26.6 °F - 24.8 °F 93% 30.21 in 2.5 mi Calm Calm - N/A   Scattered Clouds
4:13 AM 28.4 °F - 26.6 °F 93% 30.19 in 2.0 mi Calm Calm - N/A   Overcast
4:33 AM 28.4 °F - 26.6 °F 93% 30.19 in 1.8 mi Calm Calm - N/A   Mostly Cloudy
4:54 AM 28.4 °F - 26.6 °F 93% 30.19 in 1.5 mi Calm Calm - N/A   Mist
5:14 AM 26.6 °F 22.6 °F 24.8 °F 93% 30.19 in 2.0 mi ENE 3.5 mph - N/A   Clear
5:33 AM 26.6 °F 22.6 °F 24.8 °F 93% 30.19 in 2.0 mi East 3.5 mph - N/A   Clear
5:54 AM 26.6 °F - 24.8 °F 93% 30.19 in 1.8 mi Calm Calm - N/A   Mist
6:14 AM 26.6 °F - 24.8 °F 93% 30.19 in 1.0 mi Calm Calm - N/A   Mostly Cloudy
6:33 AM 26.6 °F 22.6 °F 24.8 °F 93% 30.19 in 0.2 mi ESE 3.5 mph - N/A Fog Light Freezing Fog
6:54 AM 24.8 °F 19.1 °F 24.8 °F 100% 30.19 in 0.2 mi ESE 4.6 mph - N/A Fog Light Freezing Fog
7:14 AM 26.6 °F 22.6 °F 26.6 °F 100% 30.19 in 0.2 mi SE 3.5 mph - N/A Fog Light Freezing Fog
7:33 AM 26.6 °F 22.6 °F 26.6 °F 100% 30.19 in 0.8 mi ESE 3.5 mph - N/A   Overcast
7:54 AM 28.4 °F 23.3 °F 26.6 °F 93% 30.19 in 0.8 mi ESE 4.6 mph - N/A   Overcast
8:14 AM 28.4 °F 23.3 °F 28.4 °F 100% 30.19 in 1.2 mi East 4.6 mph - N/A   Overcast
8:33 AM 30.2 °F 25.4 °F 28.4 °F 93% 30.18 in 1.5 mi ESE 4.6 mph - N/A   Mostly Cloudy
8:54 AM 32.0 °F 27.5 °F 30.2 °F 93% 30.18 in 2.0 mi ESE 4.6 mph - N/A   Mostly Cloudy
9:14 AM 33.8 °F 29.6 °F 32.0 °F 93% 30.18 in 2.5 mi SE 4.6 mph - N/A   Scattered Clouds
9:33 AM 33.8 °F 27.7 °F 33.8 °F 100% 30.18 in 3.0 mi SE 6.9 mph - N/A   Clear
9:54 AM 33.8 °F 27.0 °F 32.0 °F 93% 30.18 in 4.0 mi SE 8.1 mph - N/A   Clear
10:14 AM 35.6 °F 29.2 °F 32.0 °F 87% 30.17 in 4.0 mi SE 8.1 mph - N/A   Clear
10:33 AM 35.6 °F 29.9 °F 32.0 °F 87% 30.17 in 4.0 mi SSE 6.9 mph - N/A   Clear
10:54 AM 35.6 °F 29.9 °F 32.0 °F 87% 30.17 in 5.0 mi SE 6.9 mph - N/A   Clear
11:13 AM 35.6 °F 29.9 °F 33.8 °F 93% 30.16 in 5.0 mi SE 6.9 mph - N/A   Clear
11:54 AM 37.4 °F 34.9 °F 33.8 °F 87% 30.15 in 5.0 mi East 3.5 mph - N/A   Clear
12:13 PM 37.4 °F 32.8 °F 33.8 °F 87% 30.15 in 5.0 mi ESE 5.8 mph - N/A   Clear
12:34 PM 37.4 °F 32.8 °F 33.8 °F 87% 30.15 in 5.0 mi ESE 5.8 mph - N/A   Clear
12:54 PM 37.4 °F 32.1 °F 33.8 °F 87% 30.14 in 5.0 mi ESE 6.9 mph - N/A   Clear
1:13 PM 39.2 °F 33.6 °F 35.6 °F 87% 30.13 in 5.0 mi ESE 8.1 mph - N/A   Clear
1:34 PM 39.2 °F 33.6 °F 35.6 °F 87% 30.12 in 5.0 mi ESE 8.1 mph - N/A   Clear
1:54 PM 39.2 °F 34.2 °F 35.6 °F 87% 30.12 in 5.0 mi East 6.9 mph - N/A   Clear
2:13 PM 39.2 °F 34.2 °F 35.6 °F 87% 30.11 in 5.0 mi ESE 6.9 mph - N/A   Haze
2:34 PM 41.0 °F 35.2 °F 35.6 °F 81% 30.09 in 5.0 mi ESE 9.2 mph - N/A   Haze
2:54 PM 41.0 °F 35.2 °F 37.4 °F 87% 30.09 in 5.0 mi ESE 9.2 mph - N/A   Clear
3:13 PM 41.0 °F 36.4 °F 37.4 °F 87% 30.08 in 4.0 mi ESE 6.9 mph - N/A   Clear
3:34 PM 42.8 °F 38.6 °F 37.4 °F 81% 30.07 in 4.0 mi ESE 6.9 mph - N/A   Clear
3:54 PM 42.8 °F 38.0 °F 37.4 °F 81% 30.06 in 4.0 mi East 8.1 mph - N/A   Clear
4:13 PM 42.8 °F 38.6 °F 37.4 °F 81% 30.05 in 5.0 mi East 6.9 mph - N/A   Haze
4:34 PM 42.8 °F 37.5 °F 37.4 °F 81% 30.04 in 5.0 mi East 9.2 mph - N/A   Haze
4:54 PM 42.8 °F 38.0 °F 37.4 °F 81% 30.04 in 5.0 mi East 8.1 mph - N/A   Haze
5:13 PM 42.8 °F 38.0 °F 37.4 °F 81% 30.03 in 5.0 mi East 8.1 mph - N/A   Haze
5:34 PM 41.0 °F 35.8 °F 37.4 °F 87% 30.02 in 5.0 mi East 8.1 mph - N/A   Clear
5:54 PM 41.0 °F 35.8 °F 37.4 °F 87% 30.01 in 5.0 mi East 8.1 mph - N/A   Clear
6:13 PM 41.0 °F 36.4 °F 37.4 °F 87% 30.01 in 5.0 mi East 6.9 mph - N/A   Clear
6:33 PM 41.0 °F 36.4 °F 37.4 °F 87% 30.00 in 5.0 mi East 6.9 mph - N/A   Scattered Clouds
6:54 PM 41.0 °F 37.1 °F 37.4 °F 87% 30.00 in 4.0 mi East 5.8 mph - N/A   Scattered Clouds
7:13 PM 39.2 °F 37.0 °F 35.6 °F 87% 30.00 in 3.0 mi ENE 3.5 mph - N/A   Clear
7:34 PM 39.2 °F 35.0 °F 35.6 °F 87% 29.99 in 3.0 mi ENE 5.8 mph - N/A   Clear
7:53 PM 39.2 °F 34.2 °F 35.6 °F 87% 29.99 in 4.0 mi East 6.9 mph - N/A   Clear
8:14 PM 37.4 °F 32.8 °F 35.6 °F 93% 29.98 in 4.0 mi East 5.8 mph - N/A   Clear
8:34 PM 37.4 °F 34.9 °F 35.6 °F 93% 29.98 in 4.0 mi ESE 3.5 mph - N/A   Clear
8:53 PM 37.4 °F 33.8 °F 35.6 °F 93% 29.99 in 3.0 mi West 4.6 mph - N/A   Mostly Cloudy
9:14 PM 35.6 °F 31.7 °F 33.8 °F 93% 29.99 in 2.5 mi WNW 4.6 mph - N/A   Scattered Clouds
9:33 PM 33.8 °F - 33.8 °F 100% 29.98 in 2.5 mi Calm Calm - N/A   Clear
9:54 PM 33.8 °F 28.6 °F 32.0 °F 93% 29.98 in 2.0 mi West 5.8 mph - N/A   Clear
10:14 PM 33.8 °F - 32.0 °F 93% 29.98 in 2.0 mi Calm Calm - N/A   Clear
10:33 PM 33.8 °F - 33.8 °F 100% 29.96 in 2.0 mi Calm Calm - N/A   Clear
10:54 PM 33.8 °F 29.6 °F 32.0 °F 93% 29.96 in 1.8 mi South 4.6 mph - N/A   Mist
11:14 PM 33.8 °F - 32.0 °F 93% 29.95 in 1.8 mi Calm Calm - N/A Thunderstorm Mist
11:33 PM 33.8 °F 29.6 °F 32.0 °F 93% 29.93 in 1.8 mi South 4.6 mph - N/A   Mist
11:54 PM 33.8 °F 29.6 °F 32.0 °F 93% 29.92 in 1.8 mi South 4.6 mph - N/A   Mist